Home > Weather > Regina > Past weeks

Flag for Canada Past Weather in Regina, Saskatchewan, Canada — Yesterday and Last 2 Weeks

Now
43 °F

Passing clouds.


Feels Like: 39 °F
Forecast: 43 / 68 °F
Wind: 7 mph from South

Location: Regina Weather Station

Current Time: May 24, 2016 at 4:02:51 AM

Latest Report: May 24, 2016 at 3:00 AM


Visibility: 15 mi

Pressure: 29.75 "Hg (27.72 "Hg at 577m altitude)

Humidity: 100%

Dew Point: 43 °F

Location of ReginaLocation

Past Weather in Regina — Graph

°F

Regina Temperature Yesterday

Maximum temperature yesterday: 59 °F (at 5:00 PM)
Minimum temperature yesterday: 41 °F (at 2:00 AM)
Average temperature yesterday: 52 °F

High & Low Weather Summary for the Past Weeks

 TemperatureHumidityPressure
High81 °F (May 19, 1:00 PM)100% (May 10, 7:00 AM)30.47 "Hg (May 10, 7:00 AM)
Low28 °F (May 13, 4:00 AM)22% (May 17, 3:00 PM)29.52 "Hg (May 9, 3:00 AM)
Average54 °F60%29.95 "Hg
* Reported May 9 2:00 AM — May 24 2:00 AM, Regina, Weather by CustomWeather, © 2016

Note: Actual official high and low records may vary slightly from our data, if they occured in-between our weather recording intervals... More about our weather records

Advertising

Regina Weather History for the Previous 24 Hours

Scroll right to see more
 ConditionsComfort  
Time TempWeatherWind HumidityBarometerVisibility
2:00 AM
Tue, May 24
41 °FPassing clouds.10 mph100%29.73 "Hg15 mi
1:00 AM48 °FPartly cloudy.8 mph87%29.72 "Hg15 mi
12:00 AM48 °FPassing clouds.8 mph87%29.71 "Hg15 mi
11:00 PM
Mon, May 23
48 °FPassing clouds.8 mph87%29.71 "Hg15 mi
10:00 PM46 °FPassing clouds.8 mph82%29.69 "Hg15 mi
9:00 PM52 °FPassing clouds.8 mph77%29.66 "Hg15 mi
8:03 PM54 °FSprinkles. Partly sunny.13 mph77%29.65 "Hg15 mi
8:00 PM54 °FPartly sunny.13 mph77%29.65 "Hg15 mi
7:00 PM55 °FScattered showers. Partly sunny.5 mph72%29.64 "Hg15 mi
6:00 PM54 °FSprinkles. Partly sunny.16 mph72%29.63 "Hg15 mi
5:00 PM59 °FScattered showers. Overcast.15 mph51%29.61 "Hg15 mi
4:00 PM57 °FSprinkles. Mostly cloudy.16 mph55%29.61 "Hg15 mi
3:51 PM57 °FSprinkles. Partly sunny.14 mph51%29.60 "Hg15 mi
3:00 PM57 °FMostly cloudy.14 mph51%29.59 "Hg15 mi
2:00 PM57 °FPartly sunny.15 mph51%29.59 "Hg15 mi
1:00 PM55 °FOvercast.12 mph59%29.58 "Hg15 mi
12:00 PM55 °FOvercast.12 mph55%29.59 "Hg15 mi
11:00 AM55 °FPartly sunny.17 mph51%29.58 "Hg15 mi
10:00 AM55 °FPartly sunny.16 mph55%29.56 "Hg15 mi
9:00 AM57 °FPassing clouds.16 mph55%29.54 "Hg15 mi
8:00 AM55 °FBroken clouds.16 mph59%29.54 "Hg15 mi
7:00 AM52 °FPartly sunny.14 mph67%29.54 "Hg15 mi
6:00 AM46 °FPartly sunny.10 mph76%29.54 "Hg15 mi
5:00 AM45 °FPassing clouds.10 mph76%29.54 "Hg15 mi
4:00 AM43 °FClear.10 mph81%29.54 "Hg15 mi
Weather by CustomWeather, © 2016

See weather overviewHow to use our weather pages